COSMOS 1066

导读

COSMOS 1066(宇宙1066)是苏联/独联体(CIS)于1978年12月23日发射的人造卫星,隶属于苏联广泛的“宇宙”系列卫星计划。该系列包含多种功能卫星,涵盖军事侦察、空间科学试验、技术验证等任务,体现了冷战时期苏联在航天领域的技术实力。COSMOS 1066运行在近地轨道,轨道参数约为近地点797千米、远地点892千米,轨道倾角81.2°,作为当时苏联航天活动的组成部分,为空间技术发展积累了宝贵数据。

基本信息
目录编号:
11165
目录名称:
COSMOS 1066
国际标识:
1978-121A
轨道中心:
EARTH
卫星名称:
COSMOS 1066
卫星全名:
--
卫星状态:
在轨 (已飞行17429 天)
发射日期:
1978-12-23 UTC
国别 :
俄罗斯(独联体) (CIS)
星等 :
--
轨道信息
数据来源 国际轨道数据 AOE轨道数据
星历时间 2026-09-11T02:32:41+0800
10小时前
查看轨道信息
2026-09-07T02:00:00+0800
4天前
查看轨道信息
半长轴 7230.275km 7230.274km
偏心率 0.0048781 0.0048402
轨道倾角 81.240° 81.240°
近地点辐角 212.351° 224.167°
升交点赤经 172.099° 176.029°
平近点角 147.467° 217.193°
近地点 816.867km 817.141km
远地点 887.409km 887.133km
周期 101.975分钟 101.975分钟
每日圈数 14.121167 14.12117
详细信息
使用方式:
暂无
2D轨道图
3D轨道图
轨道高度分析图
轨道倾角分析图
轨道综合分析图
查看轨道综合分析图
与全量物体交会距离演化趋势
与全量物体交会风险概率演化趋势